Location: Unspecified
(0.0000°N, 0.0000°E)
Time: 04:25:49
(UTC+00:00)

Courier 1B - All Passes

Search period start: 24 February 2018 00:00
Search period end: 06 March 2018 00:00
Orbit: 963 x 1209 km, 28.3° (Epoch: 23 February)

Date Brightness Start Highest point End Pass type
(mag) Time Alt. Az. Time Alt. Az. Time Alt. Az.
24 Feb - 02:30:48 10° NNW 02:35:15 16° NNE 02:39:37 10° ENE visible
24 Feb - 04:23:01 10° NW 04:30:18 47° NNE 04:37:10 10° E visible
24 Feb - 06:17:27 10° WNW 06:24:36 53° SSW 06:31:20 10° SE daylight
24 Feb - 08:15:14 10° WSW 08:19:07 15° SSW 08:22:53 10° S daylight
24 Feb - 14:06:34 10° SSE 14:07:40 10° SSE 14:08:46 10° SSE daylight
24 Feb - 15:56:18 10° SW 16:02:23 37° SSE 16:08:45 10° E daylight
24 Feb - 17:49:45 10° WSW 17:56:32 63° NNW 18:03:46 10° NE daylight
24 Feb - 19:46:11 10° WNW 19:51:14 20° NNW 19:56:29 10° NNE visible
25 Feb - 01:37:58 10° N 01:40:55 12° NNE 01:43:51 10° NE night (unlit)
25 Feb - 03:29:21 10° NW 03:36:16 35° NNE 03:42:55 10° E visible
25 Feb - 05:23:11 10° WNW 05:30:43 74° SSW 05:37:49 10° SE visible
25 Feb - 07:19:49 10° WSW 07:25:06 22° SSW 07:30:12 10° SSE daylight
25 Feb - 15:03:09 10° SSW 15:08:32 26° SSE 15:14:06 10° E daylight
25 Feb - 16:55:58 10° WSW 17:02:42 86° NNW 17:09:52 10° ENE daylight
25 Feb - 18:51:27 10° W 18:57:08 26° NNW 19:03:06 10° NNE visible
26 Feb - 02:35:50 10° NNW 02:42:11 27° NNE 02:48:21 10° E visible
26 Feb - 04:29:06 10° WNW 04:36:49 82° NNE 04:44:06 10° ESE visible
26 Feb - 06:24:50 10° W 06:31:09 30° SSW 06:37:10 10° SSE daylight
26 Feb - 14:10:13 10° SSW 14:14:38 19° SSE 14:19:09 10° ESE daylight
26 Feb - 16:02:20 10° SW 16:08:55 68° SSE 16:15:50 10° ENE daylight
26 Feb - 17:57:02 10° W 18:03:08 35° NNW 18:09:36 10° NE daylight
26 Feb - 19:55:58 10° NW 19:58:20 12° NNW 20:00:44 10° N visible
27 Feb - 01:42:28 10° NNW 01:48:00 20° NNE 01:53:25 10° ENE visible
27 Feb - 03:35:11 10° NW 03:42:51 61° NNE 03:50:11 10° ESE visible
27 Feb - 05:30:09 10° W 05:37:13 42° SSW 05:43:55 10° SE visible
27 Feb - 07:29:08 10° SW 07:32:01 13° SSW 07:34:49 10° S daylight
27 Feb - 13:17:39 10° S 13:20:40 13° SSE 13:23:42 10° SE daylight
27 Feb - 15:08:54 10° SW 15:15:09 48° SSE 15:21:39 10° ENE daylight
27 Feb - 17:02:53 10° WSW 17:09:14 47° NNW 17:15:59 10° NE daylight
27 Feb - 19:00:15 10° NW 19:04:05 15° NNW 19:08:01 10° NNE visible
28 Feb - 00:49:22 10° NNW 00:53:43 16° NNE 00:58:04 10° NE night (unlit)
28 Feb - 02:41:25 10° NW 02:48:51 45° NNE 02:56:02 10° E visible
28 Feb - 04:35:42 10° WNW 04:43:16 58° SSW 04:50:28 10° SE visible
28 Feb - 06:33:12 10° WSW 06:37:53 18° SSW 06:42:26 10° SSE daylight
28 Feb - 14:15:35 10° SW 14:21:22 34° SSE 14:27:16 10° E daylight
28 Feb - 16:08:55 10° WSW 16:15:26 66° NNW 16:22:17 10° NE daylight
28 Feb - 18:05:12 10° WNW 18:09:57 20° NNW 18:14:54 10° NNE daylight
28 Feb - 23:56:47 10° N 23:59:22 12° NNE 00:01:58 10° NE night (unlit)
01 Mar - 01:47:48 10° NW 01:54:46 34° NNE 02:01:36 10° E visible
01 Mar - 03:41:29 10° WNW 03:49:19 79° SSW 03:56:50 10° SE visible
01 Mar - 05:37:53 10° W 05:43:49 24° SSW 05:49:32 10° SSE visible
01 Mar - 13:22:26 10° SSW 13:27:33 24° SSE 13:32:41 10° E daylight
01 Mar - 15:15:10 10° WSW 15:21:40 89° SSE 15:28:27 10° ENE daylight
01 Mar - 17:10:31 10° W 17:15:57 26° NNW 17:21:36 10° NNE daylight
02 Mar - 00:54:23 10° NNW 01:00:38 26° NNE 01:06:52 10° E night (unlit)
02 Mar - 02:47:27 10° NW 02:55:20 78° NNE 03:02:59 10° ESE visible
02 Mar - 04:42:58 10° W 04:49:48 33° SSW 04:56:21 10° SSE visible
02 Mar - 06:43:49 10° SSW 06:44:55 10° SSW 06:46:01 10° SSW daylight
02 Mar - 12:29:29 10° SSW 12:33:38 17° SSE 12:37:46 10° ESE daylight
02 Mar - 14:21:33 10° SW 14:27:57 63° SSE 14:34:30 10° ENE daylight
02 Mar - 16:16:09 10° W 16:22:03 35° NNW 16:28:12 10° NE daylight
02 Mar - 18:15:09 10° NW 18:17:02 11° NNW 18:18:56 10° N daylight
03 Mar - 00:01:10 10° NNW 00:06:26 19° NNE 00:11:45 10° ENE night (unlit)
03 Mar - 01:53:37 10° NW 02:01:20 58° NNE 02:08:56 10° ESE visible
03 Mar - 03:48:22 10° W 03:55:47 46° SSW 04:02:58 10° SE visible
03 Mar - 05:46:46 10° SW 05:50:41 15° SSW 05:54:30 10° S visible
03 Mar - 11:36:54 10° S 11:39:38 13° SSE 11:42:20 10° SE daylight
03 Mar - 13:28:04 10° SW 13:34:13 44° SSE 13:40:23 10° E daylight
03 Mar - 15:22:00 10° WSW 15:28:14 49° NNW 15:34:40 10° NE daylight
03 Mar - 17:19:20 10° NW 17:22:52 15° NNW 17:26:30 10° N daylight
03 Mar - 23:08:16 10° N 23:12:11 14° NNE 23:16:07 10° NE night (unlit)
04 Mar - 00:59:57 10° NW 01:07:17 43° NNE 01:14:37 10° E night (unlit)
04 Mar - 02:54:01 10° WNW 03:01:47 63° SSW 03:09:23 10° SE visible
04 Mar - 04:51:07 10° WSW 04:56:30 20° SSW 05:01:45 10° SSE visible
04 Mar - 12:34:43 10° SSW 12:40:26 31° SSE 12:46:05 10° E daylight
04 Mar - 14:28:03 10° WSW 14:34:29 70° NNW 14:41:02 10° NE daylight
04 Mar - 16:24:16 10° WNW 16:28:50 20° NNW 16:33:32 10° NNE daylight
04 Mar - 22:16:24 10° N 22:17:50 11° NNE 22:19:17 10° NNE night (unlit)
05 Mar - 00:06:28 10° NNW 00:13:13 32° NNE 00:20:02 10° E night (unlit)
05 Mar - 01:59:53 10° WNW 02:07:47 84° SSW 02:15:36 10° ESE visible
05 Mar - 03:55:59 10° W 04:02:23 27° SSW 04:08:38 10° SSE visible
05 Mar - 11:41:29 10° SSW 11:46:35 23° SSE 11:51:32 10° ESE daylight
05 Mar - 13:34:16 10° WSW 13:40:46 84° SSE 13:47:18 10° ENE daylight
05 Mar - 15:29:35 10° W 15:34:55 26° NNW 15:40:20 10° NNE daylight
05 Mar - 23:13:11 10° NNW 23:19:05 24° NNE 23:25:06 10° ENE night (unlit)
